Home > Weather > Chester > Past weeks

Flag for United Kingdom Past Weather in Chester, England, United Kingdom — Yesterday and Last 2 Weeks

Now
61 °F

Light rain. Overcast.


Feels Like: 61 °F
Forecast: 53 / 68 °F
Wind: 8 mph from Southeast

Location: Hawarden

Current Time: Jul 27, 2016 at 2:59:20 AM

Latest Report: Jul 27, 2016 at 2:00 AM


Visibility: 28 mi

Pressure: 29.92 "Hg

Humidity: 97%

Dew Point: 60 °F

Location of ChesterLocation

Past Weather in Chester — Graph

°F

Chester Temperature Yesterday

Maximum temperature yesterday: 69 °F (at 2:00 PM)
Minimum temperature yesterday: 58 °F (at 6:00 AM)
Average temperature yesterday: 63 °F

High & Low Weather Summary for the Past Weeks

 TemperatureHumidityPressure
High89 °F (Jul 19, 6:00 PM)100% (Jul 17, 3:00 AM)30.31 "Hg (Jul 17, 3:00 AM)
Low52 °F (Jul 17, 4:00 AM)43% (Jul 19, 1:00 PM)29.72 "Hg (Jul 20, 5:00 AM)
Average64 °F78%30.07 "Hg
* Reported Jul 12 12:00 AM — Jul 27 12:00 AM, Chester, Weather by CustomWeather, © 2016

Note: Actual official high and low records may vary slightly from our data, if they occured in-between our weather recording intervals... More about our weather records

Advertising

Chester Weather History for the Previous 24 Hours

Scroll right to see more
 ConditionsComfort  
Time TempWeatherWind HumidityBarometerVisibility
12:00 AM
Wed, Jul 27
62 °FRain showers. Overcast.9 mph94%29.96 "Hg10 mi
11:00 PM
Tue, Jul 26
63 °FMild.10 mph87%29.98 "Hg19 mi
10:00 PM63 °FMild.12 mph82%30.00 "Hg28 mi
9:00 PM64 °FMild.7 mph78%30.02 "Hg28 mi
8:00 PM65 °FMild.9 mph76%30.03 "Hg28 mi
7:00 PM65 °FMild.15 mph75%30.05 "Hg25 mi
6:00 PM64 °FLight rain. Cloudy.12 mph77%30.06 "Hg11 mi
5:00 PM65 °FMild.10 mph74%30.08 "Hg22 mi
4:00 PM67 °FMild.13 mph67%30.09 "Hg16 mi
3:00 PM67 °FMild.10 mph67%30.10 "Hg28 mi
2:00 PM69 °FMild.15 mph62%30.10 "Hg25 mi
1:00 PM68 °FMild.12 mph66%30.10 "Hg31 mi
12:00 PM67 °FMild.8 mph72%30.11 "Hg28 mi
11:00 AM64 °FMild.10 mph73%30.12 "Hg19 mi
10:00 AM64 °FMild.8 mph75%30.12 "Hg28 mi
9:00 AM63 °FMild.6 mph76%30.13 "Hg19 mi
8:00 AM61 °FCool.3 mph78%30.13 "Hg25 mi
7:00 AM59 °FCool.1 mph83%30.12 "Hg31 mi
6:00 AM58 °FCool.1 mph90%30.12 "Hg25 mi
5:00 AM58 °FCool.3 mph89%30.11 "Hg28 mi
4:00 AM59 °FCool.3 mph86%30.11 "Hg28 mi
3:00 AM58 °FCool.3 mph87%30.11 "Hg28 mi
2:00 AM60 °FCool.3 mph80%30.11 "Hg31 mi
Weather by CustomWeather, © 2016

See weather overviewHow to use our weather pages